Colorado Springs, CO

1:19 AM MST on February 14, 2016 (GMT -0700)
City Of Colorado Springs Municipal

Weather History for KCOS - January, 2014

Change the Weather History Date:

Monday, January 27, 2014

  Actual Average Record
Temperature  
Mean Temperature 16 °F 30 °F  
Max Temperature 23 °F 43 °F 67 °F (1970)
Min Temperature 8 °F 18 °F -18 °F (1897)
Degree Days  
Heating Degree Days 49 35  
Month to date heating degree days 913 929  
Since 1 July heating degree days 3377 3501  
Cooling Degree Days 0 0  
Month to date cooling degree days 0 0  
Year to date cooling degree days 0 0  
Moisture  
Dew Point 9 °F    
Average Humidity 80    
Maximum Humidity 92    
Minimum Humidity 67    
Precipitation  
Precipitation 0.19 in 0.02 in 0.23 in (2001)
Month to date precipitation 0.46 0.28  
Year to date precipitation 0.46 0.28  
Snow  
Snow 3.50 in 0.20 in 3.90 in (2001)
Month to date snowfall 10.2 4.9  
Since 1 July snowfall 17.3 18.4  
Snow Depth 1.00 in    
Sea Level Pressure  
Sea Level Pressure 30.16 in    
Wind  
Wind Speed 11 mph (SE)    
Max Wind Speed 20 mph    
Max Gust Speed 24 mph    
Visibility 3 miles    
Events Fog , Snow    
T = Trace of Precipitation, MM = Missing Value Source: NWS Daily Summary

Daily Weather History Graph

Daily Weather History Graph

Search for Another Location

Airport or City:

Trip Planner

Search our weather history database for the weather conditions in past years. The results will help you decide how hot, cold, wet, or windy it might be!

Date:

Astronomy

Jan. 27, 2014 Rise Set
Actual Time 7:08 AM MST 5:14 PM MST
Civil Twilight 6:40 AM MST 5:43 PM MST
Nautical Twilight 6:08 AM MST 6:15 PM MST
Astronomical Twilight 5:36 AM MST 6:46 PM MST
Moon 3:52 AM MST (1/27) 2:03 PM MST (1/27)
Length of Visible Light 11h 02m
Length of Day
10h 05m
Waning Crescent, 14% of the Moon is Illuminated
Jan 27
Waning Crescent
Jan 30
New
Feb 6
First Quarter
Feb 14
Full
Feb 22
Last Quarter

Hourly Weather History & Observations

Time (MST) Temp. Windchill Dew Point Humidity Pressure Visibility Wind Dir Wind Speed Gust Speed Precip Events Conditions
12:54 AM 19.9 °F 5.7 °F 12.0 °F 71% 30.12 in 7.0 mi SE 16.1 mph - 0.00 in Snow Light Snow
1:36 AM 18.0 °F 6.1 °F 12.0 °F 78% 30.09 in 2.0 mi ESE 10.4 mph - 0.00 in Snow Light Snow
1:54 AM 18.0 °F 6.1 °F 12.9 °F 81% 30.11 in 2.0 mi ESE 10.4 mph - 0.00 in Snow Light Snow
2:02 AM 17.1 °F 4.3 °F 12.9 °F 84% 30.09 in 1.2 mi ESE 11.5 mph - 0.00 in Snow Light Snow
2:15 AM 17.1 °F 2.0 °F 12.0 °F 81% 30.10 in 2.5 mi SE 16.1 mph - 0.00 in Snow Light Snow
2:54 AM 16.0 °F 4.4 °F 10.9 °F 81% 30.14 in 2.0 mi ESE 9.2 mph - 0.00 in Snow Light Snow
3:54 AM 15.1 °F 1.8 °F 10.9 °F 84% 30.12 in 1.0 mi SE 11.5 mph - 0.01 in Snow Light Snow
4:39 AM 15.1 °F 0.5 °F 10.0 °F 80% 30.06 in 5.0 mi SSE 13.8 mph - 0.00 in Snow Light Snow
4:54 AM 14.0 °F -1.4 °F 9.0 °F 80% 30.16 in 5.0 mi South 15.0 mph - 0.00 in Snow Light Snow
5:24 AM 12.9 °F -2.2 °F 7.0 °F 77% 30.06 in 4.0 mi SE 13.8 mph - 0.00 in Snow Light Snow
5:54 AM 12.0 °F -2.0 °F 7.0 °F 80% 30.20 in 3.0 mi SE 11.5 mph - 0.00 in Snow Light Snow
6:54 AM 10.9 °F -2.6 °F 6.1 °F 81% 30.22 in 8.0 mi SE 10.4 mph - 0.00 in Snow Light Snow
7:11 AM 10.0 °F -2.9 °F 6.1 °F 84% 30.03 in 8.0 mi SE 9.2 mph - 0.00 in Snow Light Snow
7:54 AM 10.9 °F -3.4 °F 6.1 °F 81% 30.24 in 10.0 mi SE 11.5 mph - 0.00 in   Mostly Cloudy
8:54 AM 12.9 °F -2.8 °F 7.0 °F 77% 30.26 in 8.0 mi SSE 15.0 mph - 0.00 in Snow Light Snow
9:54 AM 14.0 °F -2.0 °F 7.0 °F 74% 30.27 in 4.0 mi SSE 16.1 mph - 0.00 in Snow Light Snow
10:54 AM 16.0 °F 0.6 °F 7.0 °F 68% 30.25 in 8.0 mi South 16.1 mph - 0.00 in   Mostly Cloudy
11:54 AM 17.1 °F 3.0 °F 9.0 °F 71% 30.23 in 7.0 mi SE 13.8 mph - N/A   Mostly Cloudy
12:54 PM 16.0 °F 1.1 °F 9.0 °F 74% 30.21 in 2.0 mi SSE 15.0 mph - 0.00 in Snow Light Snow
1:10 PM 16.0 °F 1.7 °F 10.9 °F 81% 30.00 in 0.8 mi SE 13.8 mph - 0.00 in Snow Light Snow
1:25 PM 15.1 °F -0.1 °F 10.0 °F 80% 29.98 in 0.8 mi SE 15.0 mph - 0.00 in Snow Light Snow
1:50 PM 15.8 °F 2.1 °F 10.4 °F 79% 29.99 in 1.5 mi ESE 12.7 mph - 0.00 in Snow Light Snow
1:54 PM 15.1 °F 0.5 °F 9.0 °F 77% 30.20 in 1.5 mi ESE 13.8 mph - 0.00 in Snow Light Snow
2:54 PM 15.1 °F 2.5 °F 8.1 °F 74% 30.21 in 1.8 mi SSE 10.4 mph - 0.00 in Snow Light Snow
3:54 PM 15.1 °F 5.2 °F 8.1 °F 74% 30.23 in 1.5 mi ESE 6.9 mph - 0.00 in Snow Light Snow
4:54 PM 14.0 °F 5.1 °F 9.0 °F 80% 30.26 in 1.5 mi ESE 5.8 mph - 0.00 in Snow Light Snow
5:02 PM 15.1 °F 7.7 °F 9.0 °F 77% 30.01 in 2.5 mi ESE 4.6 mph - 0.00 in Snow Light Snow
5:12 PM 15.1 °F 6.4 °F 9.0 °F 77% 30.02 in 1.8 mi SE 5.8 mph - 0.00 in Snow Light Snow
5:54 PM 14.0 °F 3.9 °F 9.0 °F 80% 30.28 in 1.5 mi ESE 6.9 mph - 0.01 in Snow Light Snow
6:54 PM 12.9 °F 2.6 °F 9.0 °F 84% 30.30 in 1.2 mi SE 6.9 mph - 0.01 in Snow Light Snow
7:17 PM 12.9 °F 2.6 °F 10.0 °F 88% 30.05 in 0.8 mi SE 6.9 mph - 0.01 in Snow Light Snow
7:34 PM 12.0 °F 1.5 °F 9.0 °F 88% 30.06 in 0.2 mi SE 6.9 mph - 0.03 in Fog , Snow Heavy Snow
7:54 PM 12.0 °F 0.5 °F 8.1 °F 84% 30.34 in 0.2 mi SSE 8.1 mph - 0.09 in Fog , Snow Heavy Snow
8:09 PM 12.0 °F 1.5 °F 8.1 °F 84% 30.08 in 0.5 mi SSE 6.9 mph - 0.02 in Fog , Snow Snow
8:25 PM 12.0 °F 1.5 °F 8.1 °F 84% 30.08 in 0.5 mi SSE 6.9 mph - 0.03 in Fog , Snow Snow
8:54 PM 10.9 °F -0.8 °F 8.1 °F 88% 30.35 in 0.8 mi South 8.1 mph - 0.06 in Snow Light Snow
9:01 PM 10.9 °F -0.8 °F 8.1 °F 88% 30.09 in 1.0 mi South 8.1 mph - 0.00 in Snow Light Snow
9:54 PM 10.9 °F -0.8 °F 7.0 °F 84% 30.36 in 2.0 mi South 8.1 mph - 0.01 in Snow Light Snow
10:21 PM 10.0 °F -0.9 °F 7.0 °F 87% 30.10 in 2.0 mi South 6.9 mph - 0.00 in Snow Light Snow
10:33 PM 10.0 °F -0.9 °F 7.0 °F 87% 30.11 in 3.0 mi South 6.9 mph - 0.00 in Snow Light Snow
10:43 PM 10.0 °F -0.9 °F 7.0 °F 87% 30.11 in 2.5 mi South 6.9 mph - 0.00 in Snow Light Snow
10:54 PM 10.0 °F -0.9 °F 7.0 °F 87% 30.38 in 3.0 mi South 6.9 mph - 0.00 in Snow Light Snow
11:05 PM 10.0 °F 1.8 °F 7.0 °F 87% 30.11 in 2.5 mi South 4.6 mph - 0.00 in Snow Light Snow
11:27 PM 9.0 °F -0.9 °F 6.1 °F 88% 30.11 in 2.5 mi SSE 5.8 mph - 0.00 in Snow Light Snow
11:54 PM 8.1 °F - 5.0 °F 87% 30.38 in 2.5 mi Calm Calm - 0.00 in Snow Light Snow